| time (UTC) | temp F | wind direction | speed MPH | gust MPH | rain 1hr in | rain 24hr in | rain mn in | humidity % | barometer mb |
| 20260903151509 | 91 | 360 | 0.0 | 0.0 | 0.00 | 0.00 | 0.00 | 39 | 1017.6 |
| 20260903150013 | 93 | 360 | 0.0 | 0.0 | 0.00 | 0.00 | 0.00 | 38 | 1017.7 |
| 20260903144558 | 93 | 360 | 0.0 | 0.0 | 0.00 | 0.00 | 0.00 | 38 | 1017.7 |
| 20260903143046 | 94 | 5 | 0.0 | 0.0 | 0.00 | 0.00 | 0.00 | 36 | 1017.8 |
| 20260903141531 | 94 | 5 | 0.0 | 0.0 | 0.00 | 0.00 | 0.00 | 36 | 1017.7 |
| 20260903140024 | 94 | 0.0 | 0.0 | 0.00 | 0.00 | 0.00 | 36 | 1018.0 | |
| 20260903134516 | 94 | 5 | 0.0 | 0.0 | 0.00 | 0.00 | 0.00 | 35 | 1017.9 |
| 20260903133004 | 94 | 5 | 0.0 | 0.0 | 0.00 | 0.00 | 0.00 | 37 | 1018.2 |
| 20260903131601 | 94 | 360 | 0.0 | 0.0 | 0.00 | 0.00 | 0.00 | 36 | 1018.2 |
| 20260903130039 | 93 | 5 | 0.0 | 0.0 | 0.00 | 0.00 | 0.00 | 37 | 1018.4 |
| 20260903124525 | 93 | 360 | 0.0 | 0.0 | 0.00 | 0.00 | 0.00 | 36 | 1018.6 |
| 20260903123013 | 92 | 360 | 0.0 | 0.0 | 0.00 | 0.00 | 0.00 | 38 | 1018.7 |
| 20260903121600 | 91 | 5 | 0.0 | 0.0 | 0.00 | 0.00 | 0.00 | 39 | 1018.8 |
| 20260903120116 | 90 | 0.0 | 0.0 | 0.00 | 0.00 | 0.00 | 40 | 1019.0 | |
| 20260903114547 | 89 | 360 | 0.0 | 0.0 | 0.00 | 0.00 | 0.00 | 41 | 1019.3 |
| 20260903113024 | 89 | 360 | 0.0 | 0.0 | 0.00 | 0.00 | 0.00 | 41 | 1019.3 |
| 20260903111520 | 88 | 5 | 0.0 | 0.0 | 0.00 | 0.00 | 0.00 | 43 | 1019.5 |
| 20260903110008 | 88 | 5 | 0.0 | 0.0 | 0.00 | 0.00 | 0.00 | 42 | 1019.7 |
| 20260903104601 | 87 | 5 | 0.0 | 0.0 | 0.00 | 0.00 | 0.00 | 43 | 1020.1 |
| 20260903103050 | 86 | 360 | 0.0 | 0.0 | 0.00 | 0.00 | 0.00 | 44 | 1020.3 |
| 20260903101528 | 86 | 360 | 0.0 | 0.0 | 0.00 | 0.00 | 0.00 | 46 | 1020.4 |
| 20260903100016 | 85 | 5 | 0.0 | 0.0 | 0.00 | 0.00 | 0.00 | 49 | 1020.5 |
| 20260903094602 | 84 | 0.0 | 0.0 | 0.00 | 0.00 | 0.00 | 50 | 1020.6 | |
| 20260903093039 | 83 | 5 | 0.0 | 0.0 | 0.00 | 0.00 | 0.00 | 53 | 1020.7 |
| 20260903091517 | 81 | 0.0 | 0.0 | 0.00 | 0.00 | 0.00 | 56 | 1020.7 | |
| 20260903090001 | 80 | 5 | 0.0 | 0.0 | 0.00 | 0.00 | 0.00 | 60 | 1020.7 |
| 20260903084545 | 80 | 5 | 0.0 | 0.0 | 0.00 | 0.00 | 0.00 | 62 | 1020.8 |
| 20260903083025 | 78 | 360 | 0.0 | 0.0 | 0.00 | 0.00 | 0.00 | 64 | 1020.7 |
| 20260903081511 | 76 | 5 | 0.0 | 0.0 | 0.00 | 0.00 | 0.00 | 68 | 1020.7 |
| 20260903080007 | 74 | 0.0 | 0.0 | 0.00 | 0.00 | 0.00 | 70 | 1020.8 | |
| 20260903074610 | 72 | 360 | 0.0 | 0.0 | 0.00 | 0.00 | 0.00 | 71 | 1020.9 |
| 20260903073023 | 70 | 360 | 0.0 | 0.0 | 0.00 | 0.00 | 0.00 | 71 | 1020.9 |
| 20260903071504 | 69 | 0.0 | 0.0 | 0.00 | 0.00 | 0.00 | 67 | 1021.0 | |
| 20260903070044 | 67 | 5 | 0.0 | 0.0 | 0.00 | 0.00 | 0.00 | 59 | 1021.1 |
| 20260903064513 | 65 | 360 | 0.0 | 0.0 | 0.00 | 0.00 | 0.00 | 43 | 1021.1 |
| 20260903063008 | 62 | 360 | 0.0 | 0.0 | 0.00 | 0.00 | 0.00 | 32 | 1021.0 |
| 20260903061502 | 59 | 360 | 0.0 | 0.0 | 0.00 | 0.00 | 0.00 | 32 | 1021.0 |
| 20260903060051 | 60 | 360 | 0.0 | 0.0 | 0.00 | 0.00 | 0.00 | 31 | 1021.0 |
| 20260903054538 | 59 | 5 | 0.0 | 0.0 | 0.00 | 0.00 | 0.00 | 34 | 1020.9 |
| 20260903053014 | 59 | 5 | 0.0 | 0.0 | 0.00 | 0.00 | 0.00 | 35 | 1020.7 |
| 20260903051515 | 59 | 5 | 0.0 | 0.0 | 0.00 | 0.00 | 0.00 | 35 | 1020.5 |
| 20260903050101 | 59 | 5 | 0.0 | 0.0 | 0.00 | 0.00 | 0.00 | 39 | 1020.4 |
| 20260903044600 | 59 | 5 | 0.0 | 0.0 | 0.00 | 0.00 | 0.00 | 40 | 1020.4 |
| 20260903043046 | 59 | 5 | 0.0 | 0.0 | 0.00 | 0.00 | 0.00 | 43 | 1020.2 |
| 20260903041557 | 60 | 360 | 0.0 | 0.0 | 0.00 | 0.00 | 0.00 | 43 | 1020.3 |
| 20260903040014 | 60 | 360 | 0.0 | 0.0 | 0.00 | 0.00 | 0.00 | 46 | 1020.3 |
| 20260903034513 | 60 | 0.0 | 0.0 | 0.00 | 0.00 | 0.00 | 51 | 1020.4 | |
| 20260903033055 | 60 | 5 | 0.0 | 0.0 | 0.00 | 0.00 | 0.00 | 52 | 1020.5 |
| 20260903031535 | 60 | 5 | 0.0 | 0.0 | 0.00 | 0.00 | 0.00 | 54 | 1020.5 |
| 20260903030016 | 61 | 5 | 0.0 | 0.0 | 0.00 | 0.00 | 0.00 | 55 | 1020.5 |
| 20260903024503 | 61 | 360 | 0.0 | 0.0 | 0.00 | 0.00 | 0.00 | 57 | 1020.5 |
| 20260903023106 | 61 | 360 | 0.0 | 0.0 | 0.00 | 0.00 | 0.00 | 59 | 1020.7 |
| 20260903021556 | 61 | 360 | 0.0 | 0.0 | 0.00 | 0.00 | 0.00 | 60 | 1020.6 |
| 20260903020050 | 61 | 360 | 0.0 | 0.0 | 0.00 | 0.00 | 0.00 | 60 | 1020.5 |
| 20260903014534 | 61 | 0.0 | 0.0 | 0.00 | 0.00 | 0.00 | 63 | 1020.6 | |
| 20260903013018 | 62 | 5 | 0.0 | 0.0 | 0.00 | 0.00 | 0.00 | 65 | 1020.6 |
| 20260903011621 | 62 | 5 | 0.0 | 0.0 | 0.00 | 0.00 | 0.00 | 67 | 1020.6 |
| 20260903010057 | 63 | 0.0 | 0.0 | 0.00 | 0.00 | 0.00 | 67 | 1020.7 | |
| 20260903004532 | 63 | 5 | 0.0 | 0.0 | 0.00 | 0.00 | 0.00 | 69 | 1020.7 |
| 20260903003004 | 63 | 0.0 | 0.0 | 0.00 | 0.00 | 0.00 | 70 | 1020.7 | |
| 20260903001604 | 63 | 360 | 0.0 | 0.0 | 0.00 | 0.00 | 0.00 | 71 | 1020.8 |
| 20260903000100 | 64 | 0.0 | 0.0 | 0.00 | 0.00 | 0.00 | 71 | 1020.7 | |
| 20260902234548 | 64 | 360 | 0.0 | 0.0 | 0.00 | 0.00 | 0.00 | 72 | 1020.8 |
| 20260902233031 | 64 | 5 | 0.0 | 0.0 | 0.00 | 0.00 | 0.00 | 72 | 1020.7 |
| 20260902231507 | 64 | 5 | 0.0 | 0.0 | 0.00 | 0.00 | 0.00 | 73 | 1020.7 |
| 20260902230050 | 64 | 0.0 | 0.0 | 0.00 | 0.00 | 0.00 | 73 | 1020.6 | |
| 20260902224512 | 64 | 0.0 | 0.0 | 0.00 | 0.00 | 0.00 | 73 | 1020.5 | |
| 20260902223103 | 65 | 0.0 | 0.0 | 0.00 | 0.00 | 0.00 | 73 | 1020.5 | |
| 20260902221546 | 65 | 360 | 0.0 | 0.0 | 0.00 | 0.00 | 0.00 | 73 | 1020.4 |
| 20260902220035 | 65 | 360 | 0.0 | 0.0 | 0.00 | 0.00 | 0.00 | 73 | 1020.4 |
| 20260902214519 | 66 | 5 | 0.0 | 0.0 | 0.00 | 0.00 | 0.00 | 72 | 1020.4 |
| 20260902213001 | 67 | 360 | 0.0 | 0.0 | 0.00 | 0.00 | 0.00 | 72 | 1020.3 |
| 20260902211544 | 67 | 360 | 0.0 | 0.0 | 0.00 | 0.00 | 0.00 | 71 | 1020.3 |
| 20260902210034 | 68 | 0.0 | 0.0 | 0.00 | 0.00 | 0.00 | 70 | 1020.2 | |
| 20260902204525 | 68 | 5 | 0.0 | 0.0 | 0.00 | 0.00 | 0.00 | 69 | 1020.1 |
| 20260902203014 | 70 | 0.0 | 0.0 | 0.00 | 0.00 | 0.00 | 68 | 1020.0 | |
| 20260902201505 | 71 | 0.0 | 0.0 | 0.00 | 0.00 | 0.00 | 67 | 1019.7 | |
| 20260902194552 | 73 | 5 | 0.0 | 0.0 | 0.00 | 0.00 | 0.00 | 64 | 1019.6 |
| 20260902193035 | 75 | 0.0 | 0.0 | 0.00 | 0.00 | 0.00 | 61 | 1019.4 | |
| 20260902191534 | 76 | 5 | 0.0 | 0.0 | 0.00 | 0.00 | 0.00 | 60 | 1019.1 |
| 20260902190020 | 77 | 360 | 0.0 | 0.0 | 0.00 | 0.00 | 0.00 | 58 | 1018.9 |
| 20260902184508 | 79 | 5 | 0.0 | 0.0 | 0.00 | 0.00 | 0.00 | 56 | 1018.6 |
| 20260902183005 | 79 | 5 | 0.0 | 0.0 | 0.00 | 0.00 | 0.00 | 54 | 1018.3 |
| 20260902181601 | 80 | 5 | 0.0 | 0.0 | 0.00 | 0.00 | 0.00 | 53 | 1018.0 |
| 20260902180105 | 82 | 0.0 | 0.0 | 0.00 | 0.00 | 0.00 | 50 | 1017.7 | |
| 20260902174605 | 83 | 5 | 0.0 | 0.0 | 0.00 | 0.00 | 0.00 | 49 | 1017.6 |
| 20260902173100 | 84 | 5 | 0.0 | 0.0 | 0.00 | 0.00 | 0.00 | 48 | 1017.3 |
| 20260902171553 | 84 | 5 | 0.0 | 0.0 | 0.00 | 0.00 | 0.00 | 47 | 1017.2 |
| 20260902170041 | 85 | 5 | 0.0 | 0.0 | 0.00 | 0.00 | 0.00 | 45 | 1017.1 |
| 20260902164525 | 86 | 5 | 0.0 | 0.0 | 0.00 | 0.00 | 0.00 | 44 | 1017.0 |
| 20260902163010 | 87 | 360 | 0.0 | 0.0 | 0.00 | 0.00 | 0.00 | 42 | 1017.0 |
| 20260902161504 | 88 | 5 | 0.0 | 0.0 | 0.00 | 0.00 | 0.00 | 42 | 1017.0 |
| 20260902160106 | 87 | 360 | 0.0 | 0.0 | 0.00 | 0.00 | 0.00 | 41 | 1017.0 |
| 20260902154542 | 89 | 360 | 0.0 | 0.0 | 0.00 | 0.00 | 0.00 | 39 | 1017.2 |
| 20260902153045 | 89 | 360 | 0.0 | 0.0 | 0.00 | 0.00 | 0.00 | 39 | 1017.2 |